Flag for France Weather past 2 weeks in Aurillac, France

42 °F


Feels Like: 35 °F
Forecast: 31 / 42 °F
Wind: 10 mph from Northwest

Location: Aurillac

Current Time: Nov 25, 2015 at 11:58:54 PM

Latest Report: Nov 25, 2015 at 9:00 PM

Visibility: 34 mi

Pressure: 29.94 "Hg (27.72 "Hg at 627m altitude)

Humidity: 92%

Dew point: 39 °F

Location of AurillacLocation

Historic Weather in Aurillac — Graph


Aurillac temperature yesterday

Maximum temperature yesterday: 36 °F (at 2:00 PM)
Minimum temperature yesterday: 18 °F (at 8:00 AM)
Average temperature yesterday: 29 °F

Past Weeks' High & Low Weather Summary

High67 °F (Nov 12, 3:00 PM)97% (Nov 18, 9:00 AM)30.58 "Hg (Nov 18, 9:00 AM)
Low18 °F (Nov 24, 8:00 AM)30% (Nov 11, 2:00 PM)29.68 "Hg (Nov 21, 2:00 AM)
Average44 °F84%30.25 "Hg
* Reported Nov 10 9:00 PM — Nov 25 9:00 PM, Aurillac, Weather by CustomWeather, © 2015

Note: Actual official high and low records may vary slightly from our data, if they occured in-between our weather recording intervals... More about our weather records


Aurillac weather history for previous 24 hours

Time TempWeatherWind HumidityBarometerVisibility
9:00 PM
Wed, Nov 25
42 °FOvercast.10 mph92%29.94 "Hg34 mi
8:00 PM42 °FLow clouds.14 mph94%29.93 "Hg34 mi
7:00 PM42 °FLow clouds.12 mph96%29.93 "Hg37 mi
6:00 PM42 °FLow clouds.12 mph96%29.92 "Hg37 mi
5:00 PM42 °FLight rain. Low clouds.8 mph96%29.91 "Hg4 mi
4:00 PM42 °FDrizzle. Low clouds.12 mph96%29.92 "Hg4 mi
3:00 PM42 °FLight rain. Low clouds.12 mph96%29.94 "Hg2 mi
2:00 PM42 °FDrizzle. Low clouds.13 mph96%29.96 "Hg1 mi
1:00 PM41 °FFog.14 mph96%29.97 "Hg0 mi
12:00 PM39 °FFog.2 mph96%30.01 "Hg1 mi
11:00 AM37 °FHeavy rain. Low clouds.No wind96%30.03 "Hg1 mi
10:00 AM36 °FLight rain. Low clouds.1 mph96%30.04 "Hg1 mi
9:00 AM35 °FLight rain. Low clouds.No wind95%30.05 "Hg1 mi
6:00 AM34 °FLight rain. Low clouds.No wind95%30.08 "Hg1 mi
3:00 AM34 °FRain. Low clouds.2 mph95%30.11 "Hg1 mi
2:00 AM33 °FLow clouds.5 mph95%30.12 "Hg1 mi
Weather by CustomWeather, © 2015

See weather overviewHow to use our weather pages